TimeEST,TemperatureF,Dew PointF,Humidity,Sea Level PressureIn,VisibilityMPH,Wind Direction,Wind SpeedMPH,Gust SpeedMPH,PrecipitationIn,Events,Conditions,WindDirDegrees,DateUTC
12:53 AM,51.1,21.9,32,30.01,10.0,South,11.5,-,N/A,,Overcast,190,2013-02-19 05:53:00
1:53 AM,50.0,25.0,38,29.99,10.0,SSE,6.9,-,0.00,Rain,Light Rain,160,2013-02-19 06:53:00
2:53 AM,42.1,37.9,85,30.01,5.0,Calm,Calm,-,0.04,Rain,Rain,0,2013-02-19 07:53:00
3:53 AM,41.0,39.0,93,30.10,4.0,Calm,Calm,-,0.13,Rain,Light Rain,0,2013-02-19 08:53:00
4:53 AM,39.9,39.9,100,30.04,7.0,ESE,5.8,-,0.07,Rain,Light Rain,110,2013-02-19 09:53:00
5:53 AM,39.9,39.0,97,30.01,7.0,SSE,6.9,-,0.04,Rain,Light Rain,150,2013-02-19 10:53:00
6:08 AM,39.2,39.2,100,30.01,9.0,SE,5.8,-,0.00,,Overcast,130,2013-02-19 11:08:00
6:41 AM,39.2,39.2,100,30.02,10.0,SE,3.5,-,0.00,,Overcast,130,2013-02-19 11:41:00
6:53 AM,39.9,37.9,93,30.00,10.0,ESE,4.6,-,0.00,,Overcast,120,2013-02-19 11:53:00
7:53 AM,39.9,39.9,100,30.01,8.0,Calm,Calm,-,N/A,,Overcast,0,2013-02-19 12:53:00
8:53 AM,41.0,41.0,100,30.04,5.0,Calm,Calm,-,0.00,Rain,Light Rain,0,2013-02-19 13:53:00
9:19 AM,42.8,41.0,93,30.06,2.5,Calm,Calm,-,0.00,,Overcast,0,2013-02-19 14:19:00
9:49 AM,42.8,41.0,93,30.07,2.5,Calm,Calm,-,0.00,,Overcast,0,2013-02-19 14:49:00
9:53 AM,42.1,42.1,100,30.06,2.5,Calm,Calm,-,0.00,,Overcast,0,2013-02-19 14:53:00
10:00 AM,42.8,42.8,100,30.07,3.0,Calm,Calm,-,N/A,,Overcast,0,2013-02-19 15:00:00
10:53 AM,44.1,43.0,96,30.06,7.0,Calm,Calm,-,N/A,,Overcast,0,2013-02-19 15:53:00
11:53 AM,48.9,46.0,90,30.06,9.0,South,5.8,-,N/A,,Mostly Cloudy,190,2013-02-19 16:53:00
12:01 PM,48.2,46.4,93,30.06,10.0,Variable,4.6,-,N/A,,Mostly Cloudy,0,2013-02-19 17:01:00
12:28 PM,51.8,44.6,76,30.06,10.0,Variable,3.5,-,N/A,,Scattered Clouds,0,2013-02-19 17:28:00
1:53 PM,55.9,33.1,42,30.04,10.0,West,13.8,21.9,N/A,,Clear,280,2013-02-19 18:53:00
2:53 PM,55.9,28.0,34,30.04,10.0,West,11.5,24.2,N/A,,Clear,280,2013-02-19 19:53:00
3:53 PM,57.0,30.0,36,30.04,10.0,WNW,8.1,18.4,N/A,,Clear,290,2013-02-19 20:53:00
4:53 PM,54.0,19.9,26,30.06,10.0,West,13.8,23.0,N/A,,Clear,280,2013-02-19 21:53:00
5:53 PM,52.0,18.0,26,30.09,10.0,WNW,12.7,20.7,N/A,,Clear,290,2013-02-19 22:53:00
7:53 PM,46.0,18.0,33,30.14,10.0,West,6.9,-,N/A,,Clear,280,2013-02-20 00:53:00
8:53 PM,43.0,19.0,38,30.14,10.0,West,4.6,-,N/A,,Clear,280,2013-02-20 01:53:00
9:53 PM,43.0,16.0,34,30.16,10.0,WNW,4.6,-,N/A,,Clear,290,2013-02-20 02:53:00
10:53 PM,42.1,15.1,34,30.19,10.0,WNW,8.1,-,N/A,,Clear,290,2013-02-20 03:53:00
11:53 PM,39.0,17.1,41,30.19,10.0,NNW,6.9,-,N/A,,Clear,340,2013-02-20 04:53:00